Location: Clyde
(45.1830°S, 169.3170°E)
Time: 12:01:45
(UTC+13:00)

Daily predictions for brighter satellites

Satellite Brightness Start Highest point End
(mag) Time Altitude Azimuth Time Altitude Azimuth Time Altitude Azimuth
Meteor 2-10 Rocket 4.0 20:40:46 10° SSW 20:46:42 82° W 20:52:26 10° N
CZ-2D R/B 4.2 20:47:05 10° SE 20:50:29 28° E 20:53:50 10° NNE
Cosmos 1503 Rocket 4.1 20:46:04 10° NNW 20:51:23 90° ENE 20:56:50 10° SSE
Cosmos 1939 Rocket 3.8 20:49:00 10° SE 20:52:23 27° E 20:55:45 10° NNE
YAOGAN 1 2.7 20:50:21 10° SSE 20:54:41 53° E 20:58:57 10° N
CZ-4C R/B 3.2 20:50:47 10° N 20:58:26 46° ENE 21:05:12 10° SE
Cosmos 1869 4.2 20:58:03 10° S 21:01:46 32° ESE 21:05:27 10° NE
FengYun 1-2 T 4.3 20:56:36 10° SSE 21:02:21 79° ENE 21:08:03 10° N
CSL-04 Rocket 3.8 20:57:28 10° SSE 21:03:00 60° ENE 21:08:31 10° N
Cosmos 1842 Rocket 3.9 21:00:41 10° SSW 21:05:06 71° W 21:09:27 10° N
Cosmos 2082 Rocket 4.0 21:05:23 10° ENE 21:06:10 10° E 21:07:02 10° E
GPS 2-04 Rocket1 4.4 21:05:29 10° NNW 21:07:25 14° NNE 21:09:00 11° NE
DELTA 2 R/B (1) 4.1 21:02:05 10° WNW 21:07:26 45° N 21:12:30 11° E
Cosmos 2221 2.6 21:04:34 10° S 21:09:02 90° NW 21:13:22 10° N
Lacrosse 4 Rocket 3.8 21:08:52 10° S 21:11:12 14° SE 21:13:32 10° ESE
Cosmos 1892 4.2 21:11:34 13° ENE 21:13:31 19° E 21:16:17 10° SE
BREEZE-M DEB (TANK) 2.7 21:14:24 10° WSW 21:16:39 32° S 21:19:26 10° ESE
Meteor 1-27 4.4 21:11:44 10° SSW 21:17:32 79° W 21:23:11 10° N
Ariane Rocket 3.4 21:13:20 10° SSE 21:18:11 40° E 21:22:58 10° NNE
USA 229 DEB 3.7 21:12:07 10° SW 21:19:06 89° SE 21:25:18 12° NE
USA 229 3.7 21:12:09 10° SW 21:19:10 88° SE 21:25:22 12° NE
DMSP B5D2-2 4.1 21:13:58 10° NNE 21:19:13 89° ESE 21:24:33 10° SSW
Cosmos 1076 Rocket 3.5 21:15:09 10° N 21:19:25 67° E 21:23:43 10° SSE
Cosmos 2100 Rocket 4.1 21:13:43 10° NNE 21:19:46 57° E 21:25:57 10° SSE
Cosmos 1697 Rocket 4.0 21:15:14 10° S 21:20:00 27° SE 21:23:50 14° E
BREEZE-M DEB (TANK) 3.8 21:17:43 10° WSW 21:21:28 65° SSE 21:34:08 10° E
ATLAS CENTAUR R/B 3.8 21:05:57 10° NW 21:21:37 72° NE 21:27:09 10° SE
NOAA 11 4.3 21:16:37 10° SSE 21:22:08 57° E 21:27:33 10° N
COSMOS 2406 3.4 21:18:30 10° N 21:23:55 48° ENE 21:29:23 10° SE
Okean 3 Rocket 4.2 21:20:13 10° NNE 21:24:14 34° E 21:28:17 10° SSE
SL-8 R/B 4.2 21:19:41 10° W 21:24:31 59° S 21:29:21 10° ESE
CZ-4 R/B 2.3 21:20:37 10° S 21:24:32 52° WSW 21:28:28 10° NNW
Cosmos 2058 3.0 21:21:09 10° N 21:25:13 54° E 21:29:19 10° SSE
NOSS 3-1 (A) 3.6 21:18:49 10° SW 21:25:22 62° SE 21:29:46 17° NE
FREGAT/IRIS 3.6 21:24:03 10° SE 21:26:30 25° E 21:27:07 23° ENE
Meteor 2-20 Rocket 4.4 21:20:53 10° S 21:27:05 71° E 21:33:11 10° NNE
MOS 1 Rocket 4.4 21:24:44 16° ENE 21:27:46 31° ESE 21:32:16 10° S
USA 186 3.0 21:28:22 10° SE 21:31:16 24° E 21:32:00 23° ENE
USA 215 4.2 21:26:50 10° ESE 21:31:59 24° NE 21:37:06 10° N
Cosmos 2016 Rocket 4.3 21:30:34 10° NNE 21:36:41 50° E 21:42:49 10° SSE
Cosmos 2151 3.5 21:36:43 17° NNE 21:39:35 38° E 21:43:36 10° SSE
MONITOR-E 4.0 21:37:06 10° SSE 21:39:56 53° E 21:41:26 23° N
NOSS 3-1 (C) 3.5 21:33:29 10° SW 21:39:56 75° NW 21:44:19 17° NNE
SJ-6B 3.9 21:37:12 10° SE 21:40:47 27° E 21:41:47 24° ENE
CZ-2C R/B 2.6 21:39:26 10° NNE 21:44:42 87° WNW 21:49:59 10° SSW
ISS -2.9 21:46:24 10° W 21:49:44 52° SSW 21:53:06 10° SE
BREEZE-M R/B 4.3 21:35:31 10° WSW 21:49:46 83° SSE 21:51:48 27° ENE
IRS-1A Rocket 4.3 21:45:45 10° SSE 21:51:34 66° ENE 21:57:11 10° N
Cosmos 1656 3.7 21:47:28 10° SSW 21:53:12 70° ESE 21:56:36 25° NE
Cosmos 1408 3.7 21:57:06 27° E 21:57:06 27° E 21:59:54 10° SSE
Cosmos 2322 Rocket 4.5 21:56:22 10° SSE 21:58:13 11° SE 22:00:04 10° SE
Cosmos 1356 Rocket 3.4 21:54:15 10° SSW 21:58:28 82° W 22:00:59 23° N
Cosmos 2278 4.3 21:58:05 10° SSW 22:03:31 43° SE 22:05:57 28° ENE
HJ-1C 4.2 22:01:07 10° S 22:04:32 55° WSW 22:07:54 10° NNW
SPOT 3 Rocket 3.9 22:00:59 10° SSE 22:05:57 42° E 22:07:46 31° NE
USA 267 4.3 22:02:05 12° E 22:07:40 39° SSE 22:13:42 10° SW
Cosmos 1459 Rocket 4.3 22:01:30 10° NNW 22:07:53 70° W 22:14:19 10° S
SJ-11-01 4.2 22:04:29 10° SSE 22:09:20 74° E 22:13:00 17° N
NOSS 2-3 (C) 4.4 22:02:41 10° SW 22:09:49 85° SE 22:12:33 33° NE
Cosmos 1980 Rocket 3.1 22:07:34 10° SSW 22:12:46 35° SE 22:14:45 28° E
Cosmos 2061 Rocket 4.0 22:06:37 10° N 22:12:52 86° W 22:19:18 10° S
Resurs 01 Rocket 3.1 22:11:32 10° SE 22:14:08 22° ESE 22:14:08 22° ESE
Cosmos 1833 Rocket 2.7 22:11:23 10° N 22:16:56 60° ENE 22:22:33 10° SSE
Cosmos 1680 Rocket 3.7 22:13:12 10° SSW 22:18:29 55° ESE 22:20:09 39° ENE
Cosmos 1515 Rocket 3.9 22:16:12 10° S 22:20:33 48° ESE 22:21:09 45° ENE
H-2A R/B 2.0 22:16:38 10° SSE 22:21:34 54° E 22:23:03 40° NNE
Cosmos 1743 Rocket 4.3 22:22:33 36° E 22:22:33 36° E 22:26:19 10° SSE
Resurs 1-3 4.3 22:18:48 10° SSE 22:22:30 36° E 22:22:30 36° E
Tsikada Rocket 3.9 22:17:16 10° S 22:23:35 80° E 22:26:44 31° NNE
SJ 16-02 3.2 22:27:06 18° ESE 22:27:06 18° ESE 22:28:41 10° SE
Genesis I 3.8 22:22:24 10° SW 22:26:14 49° WNW 22:27:02 41° NNW
Mayak 0.2 22:30:32 25° ESE 22:30:32 25° ESE 22:33:50 10° SSE
EO 1 Del DPAF 3.2 22:29:46 61° N 22:30:21 79° WNW 22:34:15 10° SSW
Meteor 2-3 Rocket 4.3 22:30:37 37° ENE 22:31:07 38° E 22:36:26 10° SSE
Cosmos 923 Rocket 4.0 22:27:23 10° SSW 22:32:50 88° WNW 22:34:36 44° NNE
Cosmos 1151 Rocket 2.9 22:28:32 10° S 22:32:56 87° W 22:33:48 57° N
ATLAS CENTAUR Rocket 4.3 21:56:55 10° WNW 22:35:07 35° NNW 22:38:39 28° NNE
Cosmos 1606 3.5 22:35:06 10° S 22:38:19 40° SE 22:38:19 40° SE
Cosmos 1825 2.4 22:44:05 61° SSE 22:44:05 61° SSE 22:47:23 10° SSE
Meteor 1-26 Rocket 4.4 22:39:05 10° S 22:44:30 53° ESE 22:45:15 49° ENE
Thor Agena Rocket 3.7 22:45:28 43° N 22:47:03 68° WNW 22:52:12 10° SSW
CZ-4C R/B 3.7 22:39:26 10° WNW 22:47:08 52° SW 22:53:47 10° SSE
Cosmos 1238 Rocket 3.9 22:49:36 33° SSE 22:49:36 33° SSE 22:51:36 10° SSE
Cosmos 1892 4.4 22:46:30 16° NW 22:48:59 32° WSW 22:52:31 10° S
Cosmos 2082 Rocket 2.0 22:47:05 39° N 22:49:13 74° ENE 22:54:53 10° SSE
Lacrosse 4 Rocket 1.5 22:46:10 10° SSW 22:50:43 75° ESE 22:50:47 75° ESE
Cosmos 1328 Rocket 4.2 22:46:43 10° SSW 22:50:59 50° W 22:52:02 41° NW
ARGOS 3.1 22:45:35 10° SSE 22:51:04 88° ENE 22:52:58 43° NNW
DELTA 2 R/B (1) 4.0 22:48:05 10° W 22:53:16 45° NNW 22:53:16 45° NNW
Cosmos 1500 Rocket 3.7 22:56:33 65° SE 22:56:33 65° SE 23:00:27 10° SSE
ERBS 3.6 22:53:25 10° SW 22:55:50 40° SSW 22:55:50 40° SSW
Cosmos 2228 Rocket 3.1 22:52:42 10° S 22:57:11 77° ESE 22:57:11 77° ESE
Cosmos 2233 Rocket 4.0 22:55:04 32° NNW 22:58:17 81° W 23:04:39 10° S
Lacrosse 5 rocket 4.1 23:04:11 11° SE 23:04:11 11° SE 23:04:25 10° SE
USA 186 4.4 22:59:19 10° SSW 23:02:01 21° WSW 23:03:41 15° WNW
Cosmos 1697 Rocket 3.1 22:58:46 10° SSW 23:04:21 57° WNW 23:05:35 47° NNW
Cosmos 2360 4.1 23:00:37 10° SSW 23:06:23 81° WNW 23:07:12 66° N
SL-8 R/B 3.7 23:02:30 10° WSW 23:07:25 77° SSE 23:07:30 76° SSE
Cosmos 1933 3.8 23:04:28 10° SSW 23:08:06 59° WSW 23:08:06 59° WSW
SL-16 R/B 3.1 23:10:20 10° SSW 23:15:36 36° SE 23:16:05 35° ESE
USA 215 3.1 23:08:57 10° SE 23:15:36 82° NE 23:22:13 10° NW
Cosmos 1898 Rocket 3.5 23:17:36 74° NW 23:18:05 84° WSW 23:23:29 10° SSE
CZ-2C R/B 3.3 23:13:16 10° S 23:18:36 73° WSW 23:19:45 55° NW
SL-08 RB Rocket 4.4 23:19:23 10° S 23:24:00 53° WSW 23:24:40 49° WNW
Cosmos 2034 Rocket 4.4 23:25:24 49° E 23:25:24 49° E 23:31:20 10° SSE
ISS -1.3 23:24:00 10° WSW 23:26:03 23° SSW 23:26:03 23° SSW
Spot 2 Rocket 3.9 23:24:51 10° SSE 23:28:52 52° SE 23:28:52 52° SE
Cosmos 1782 4.3 23:31:27 10° S 23:33:53 35° S 23:33:53 35° S
Meteor 2-6 Rocket 4.4 23:37:12 10° S 23:42:50 68° SE 23:42:50 68° SE
Cosmos 2322 Rocket 2.7 23:38:11 10° SSW 23:43:34 49° SE 23:43:34 49° SE
USA 267 3.2 23:49:25 71° ENE 23:50:12 82° SE 23:56:50 10° SW
Cosmos 2360 Rocket 3.4 23:45:59 10° S 23:51:00 31° SE 23:51:06 31° SE
Resurs 01 Rocket 2.9 23:47:36 10° S 23:51:43 37° WSW 23:51:43 37° WSW
